Time,TemperatureF,DewpointF,PressureIn,WindDirection,WindDirectionDegrees,WindSpeedMPH,WindSpeedGustMPH,Humidity,HourlyPrecipIn,Conditions,Clouds,dailyrainin,SoftwareType,DateUTC
2013-07-07 00:01:00,69.0,-23.0,28.01,SSW,202,0.0,0.0,0,0.00,,,0.00,Rainwise IP-100,2013-07-07 04:01:00,
2013-07-07 00:06:00,69.0,-23.0,28.01,NE,45,0.0,0.0,0,0.00,,,0.00,Rainwise IP-100,2013-07-07 04:06:00,
2013-07-07 00:11:00,69.0,-23.0,28.01,NE,45,0.0,0.0,0,0.00,,,0.00,Rainwise IP-100,2013-07-07 04:11:00,
2013-07-07 00:16:00,69.0,-23.0,28.01,NE,45,0.0,0.0,0,0.00,,,0.00,Rainwise IP-100,2013-07-07 04:16:00,
2013-07-07 00:21:00,69.0,-23.0,28.01,SSE,157,0.0,3.0,0,0.00,,,0.00,Rainwise IP-100,2013-07-07 04:21:00,
2013-07-07 00:26:00,69.0,-23.0,28.01,SSE,157,0.0,2.0,0,0.00,,,0.00,Rainwise IP-100,2013-07-07 04:26:00,
2013-07-07 00:31:00,69.0,-23.0,28.01,South,180,0.0,3.0,0,0.00,,,0.00,Rainwise IP-100,2013-07-07 04:31:00,
2013-07-07 00:36:00,69.0,-23.0,28.00,ENE,67,0.0,3.0,0,0.00,,,0.00,Rainwise IP-100,2013-07-07 04:36:00,
2013-07-07 00:41:00,69.0,-23.0,28.00,SSW,202,0.0,3.0,0,0.00,,,0.00,Rainwise IP-100,2013-07-07 04:41:00,
2013-07-07 00:46:00,69.0,-23.0,28.00,SSE,157,0.0,3.0,0,0.00,,,0.00,Rainwise IP-100,2013-07-07 04:46:00,
2013-07-07 00:51:00,69.0,-23.0,28.00,ESE,112,0.0,4.0,0,0.00,,,0.00,Rainwise IP-100,2013-07-07 04:51:00,
2013-07-07 00:56:00,69.0,-23.0,28.00,SSW,202,0.0,2.0,0,0.00,,,0.00,Rainwise IP-100,2013-07-07 04:56:00,
2013-07-07 01:01:00,69.0,-23.0,28.00,SSW,202,0.0,5.0,0,0.00,,,0.00,Rainwise IP-100,2013-07-07 05:01:00,
2013-07-07 01:06:00,69.0,-23.0,28.00,ESE,112,0.0,3.0,0,0.00,,,0.00,Rainwise IP-100,2013-07-07 05:06:00,
2013-07-07 01:11:00,69.0,-23.0,28.00,SE,135,1.0,3.0,0,0.00,,,0.00,Rainwise IP-100,2013-07-07 05:11:00,
2013-07-07 01:16:00,69.0,-23.0,27.99,SSE,157,0.0,6.0,0,0.00,,,0.00,Rainwise IP-100,2013-07-07 05:16:00,
2013-07-07 01:21:00,69.0,-23.0,27.99,ESE,112,1.0,9.0,0,0.00,,,0.00,Rainwise IP-100,2013-07-07 05:21:00,
2013-07-07 01:26:00,69.0,-23.0,27.98,SE,135,1.0,4.0,0,0.00,,,0.00,Rainwise IP-100,2013-07-07 05:26:00,
2013-07-07 01:31:00,69.0,-23.0,27.98,SW,225,3.0,4.0,0,0.00,,,0.00,Rainwise IP-100,2013-07-07 05:31:00,
2013-07-07 01:36:00,69.0,-23.0,27.99,East,90,0.0,4.0,0,0.00,,,0.00,Rainwise IP-100,2013-07-07 05:36:00,
2013-07-07 01:41:00,69.0,-23.0,27.99,WNW,292,3.0,5.0,0,0.00,,,0.00,Rainwise IP-100,2013-07-07 05:41:00,
2013-07-07 01:46:00,69.0,-23.0,27.99,SW,225,0.0,5.0,0,0.00,,,0.00,Rainwise IP-100,2013-07-07 05:46:00,
2013-07-07 01:51:00,69.0,-23.0,27.99,SE,135,1.0,0.0,0,0.06,,,0.01,Rainwise IP-100,2013-07-07 05:51:00,
2013-07-07 01:56:00,69.0,-23.0,27.99,ENE,67,0.0,3.0,0,0.18,,,0.03,Rainwise IP-100,2013-07-07 05:56:00,
2013-07-07 02:00:00,69.0,-23.0,27.99,NNE,22,0.0,2.0,0,0.24,,,0.05,Rainwise IP-100,2013-07-07 06:00:00,
2013-07-07 02:05:00,69.0,-23.0,27.98,ENE,67,0.0,3.0,0,0.12,,,0.05,Rainwise IP-100,2013-07-07 06:05:00,
2013-07-07 02:10:00,69.0,-23.0,27.98,SSW,202,0.0,3.0,0,0.06,,,0.06,Rainwise IP-100,2013-07-07 06:10:00,
2013-07-07 02:15:00,68.0,-23.0,27.98,SSW,202,0.0,0.0,0,0.12,,,0.07,Rainwise IP-100,2013-07-07 06:15:00,
2013-07-07 02:20:00,68.0,-23.0,27.98,ESE,112,0.0,3.0,0,0.06,,,0.07,Rainwise IP-100,2013-07-07 06:20:00,
2013-07-07 02:25:00,68.0,-23.0,27.97,SSW,202,0.0,4.0,0,0.00,,,0.07,Rainwise IP-100,2013-07-07 06:25:00,
2013-07-07 02:30:00,68.0,-23.0,27.97,East,90,0.0,2.0,0,0.00,,,0.07,Rainwise IP-100,2013-07-07 06:30:00,
2013-07-07 02:35:00,69.0,-23.0,27.98,ESE,112,0.0,1.0,0,0.00,,,0.07,Rainwise IP-100,2013-07-07 06:35:00,
2013-07-07 02:40:00,68.0,-23.0,27.98,ESE,112,0.0,2.0,0,0.06,,,0.08,Rainwise IP-100,2013-07-07 06:40:00,
2013-07-07 02:45:00,69.0,-23.0,27.97,ESE,112,0.0,0.0,0,0.12,,,0.09,Rainwise IP-100,2013-07-07 06:45:00,
2013-07-07 02:50:00,69.0,-23.0,27.97,SE,135,0.0,2.0,0,0.06,,,0.09,Rainwise IP-100,2013-07-07 06:50:00,
2013-07-07 02:55:00,69.0,-23.0,27.97,SSW,202,1.0,3.0,0,0.00,,,0.09,Rainwise IP-100,2013-07-07 06:55:00,
2013-07-07 03:00:00,69.0,-23.0,27.97,SW,225,2.0,5.0,0,0.00,,,0.09,Rainwise IP-100,2013-07-07 07:00:00,
2013-07-07 03:05:00,69.0,-23.0,27.97,NNW,337,0.0,3.0,0,0.00,,,0.09,Rainwise IP-100,2013-07-07 07:05:00,
2013-07-07 03:10:00,68.0,-23.0,27.97,SW,225,0.0,3.0,0,0.00,,,0.09,Rainwise IP-100,2013-07-07 07:10:00,
2013-07-07 03:15:00,68.0,-23.0,27.97,WSW,247,0.0,4.0,0,0.00,,,0.09,Rainwise IP-100,2013-07-07 07:15:00,
2013-07-07 03:20:00,68.0,-23.0,27.97,East,90,0.0,3.0,0,0.00,,,0.09,Rainwise IP-100,2013-07-07 07:20:00,
2013-07-07 03:25:00,68.0,-23.0,27.97,East,90,0.0,0.0,0,0.00,,,0.09,Rainwise IP-100,2013-07-07 07:25:00,
2013-07-07 03:30:00,68.0,-23.0,27.97,ESE,112,0.0,3.0,0,0.06,,,0.10,Rainwise IP-100,2013-07-07 07:30:00,
2013-07-07 03:35:00,68.0,-23.0,27.98,ESE,112,0.0,0.0,0,0.12,,,0.11,Rainwise IP-100,2013-07-07 07:35:00,
2013-07-07 03:40:00,68.0,-23.0,27.98,ESE,112,0.0,0.0,0,0.06,,,0.12,Rainwise IP-100,2013-07-07 07:40:00,
2013-07-07 03:41:00,68.0,-23.0,27.98,ESE,112,0.0,0.0,0,0.06,,,0.12,Rainwise IP-100,2013-07-07 07:41:00,
2013-07-07 03:46:00,68.0,-23.0,27.98,ESE,112,0.0,0.0,0,0.12,,,0.13,Rainwise IP-100,2013-07-07 07:46:00,
2013-07-07 03:51:00,68.0,-23.0,27.98,ESE,112,0.0,0.0,0,0.12,,,0.14,Rainwise IP-100,2013-07-07 07:51:00,
2013-07-07 03:56:00,68.0,-23.0,27.99,ESE,112,0.0,0.0,0,0.12,,,0.15,Rainwise IP-100,2013-07-07 07:56:00,
2013-07-07 04:01:00,68.0,-23.0,27.99,ESE,112,0.0,0.0,0,0.12,,,0.16,Rainwise IP-100,2013-07-07 08:01:00,
2013-07-07 04:06:00,68.0,-23.0,27.98,ESE,112,0.0,0.0,0,0.12,,,0.17,Rainwise IP-100,2013-07-07 08:06:00,
2013-07-07 04:11:00,68.0,-23.0,27.98,ESE,112,0.0,0.0,0,0.12,,,0.18,Rainwise IP-100,2013-07-07 08:11:00,
2013-07-07 04:16:00,68.0,-23.0,27.98,ESE,112,0.0,0.0,0,0.06,,,0.18,Rainwise IP-100,2013-07-07 08:16:00,
2013-07-07 04:21:00,68.0,-23.0,27.98,ESE,112,0.0,0.0,0,0.06,,,0.19,Rainwise IP-100,2013-07-07 08:21:00,
2013-07-07 04:26:00,68.0,-23.0,27.98,ESE,112,0.0,0.0,0,0.06,,,0.19,Rainwise IP-100,2013-07-07 08:26:00,
2013-07-07 04:31:00,67.0,-23.0,27.98,ESE,112,0.0,0.0,0,0.00,,,0.19,Rainwise IP-100,2013-07-07 08:31:00,
2013-07-07 04:36:00,67.0,-23.0,27.98,ESE,112,0.0,0.0,0,0.00,,,0.19,Rainwise IP-100,2013-07-07 08:36:00,
2013-07-07 04:41:00,68.0,-23.0,27.98,ESE,112,0.0,0.0,0,0.00,,,0.19,Rainwise IP-100,2013-07-07 08:41:00,
2013-07-07 04:46:00,68.0,-23.0,27.98,ESE,112,0.0,0.0,0,0.00,,,0.19,Rainwise IP-100,2013-07-07 08:46:00,
2013-07-07 04:51:00,67.0,-23.0,27.98,ESE,112,0.0,0.0,0,0.00,,,0.19,Rainwise IP-100,2013-07-07 08:51:00,
2013-07-07 04:56:00,67.0,-23.0,27.98,ESE,112,0.0,0.0,0,0.00,,,0.19,Rainwise IP-100,2013-07-07 08:56:00,
2013-07-07 05:01:00,67.0,-23.0,27.98,SE,135,0.0,3.0,0,0.06,,,0.20,Rainwise IP-100,2013-07-07 09:01:00,
2013-07-07 05:06:00,67.0,-23.0,27.98,ENE,67,0.0,0.0,0,0.12,,,0.21,Rainwise IP-100,2013-07-07 09:06:00,
2013-07-07 05:11:00,67.0,-23.0,27.98,ENE,67,0.0,0.0,0,0.06,,,0.21,Rainwise IP-100,2013-07-07 09:11:00,
2013-07-07 05:16:00,67.0,-23.0,27.99,ENE,67,0.0,0.0,0,0.00,,,0.21,Rainwise IP-100,2013-07-07 09:16:00,
2013-07-07 05:21:00,67.0,-23.0,27.99,ENE,67,0.0,0.0,0,0.00,,,0.21,Rainwise IP-100,2013-07-07 09:21:00,
2013-07-07 05:26:00,67.0,-23.0,27.98,ENE,67,0.0,0.0,0,0.00,,,0.21,Rainwise IP-100,2013-07-07 09:26:00,
2013-07-07 05:31:00,67.0,-23.0,27.98,ENE,67,0.0,0.0,0,0.00,,,0.21,Rainwise IP-100,2013-07-07 09:31:00,
2013-07-07 05:36:00,67.0,-23.0,27.98,ENE,67,0.0,0.0,0,0.00,,,0.21,Rainwise IP-100,2013-07-07 09:36:00,
2013-07-07 05:41:00,67.0,-23.0,27.98,ENE,67,0.0,0.0,0,0.00,,,0.21,Rainwise IP-100,2013-07-07 09:41:00,
2013-07-07 05:46:00,67.0,-23.0,27.98,ENE,67,0.0,0.0,0,0.00,,,0.21,Rainwise IP-100,2013-07-07 09:46:00,
2013-07-07 05:51:00,67.0,-23.0,27.98,ENE,67,0.0,0.0,0,0.00,,,0.21,Rainwise IP-100,2013-07-07 09:51:00,
2013-07-07 05:56:00,67.0,-23.0,27.98,ENE,67,0.0,0.0,0,0.06,,,0.22,Rainwise IP-100,2013-07-07 09:56:00,
2013-07-07 06:01:00,67.0,-23.0,27.98,ENE,67,0.0,0.0,0,0.06,,,0.22,Rainwise IP-100,2013-07-07 10:01:00,
2013-07-07 06:06:00,67.0,-23.0,27.98,ENE,67,0.0,0.0,0,0.00,,,0.22,Rainwise IP-100,2013-07-07 10:06:00,
2013-07-07 06:11:00,67.0,-23.0,27.98,ENE,67,0.0,0.0,0,0.00,,,0.22,Rainwise IP-100,2013-07-07 10:11:00,
2013-07-07 06:16:00,66.0,-23.0,27.98,ENE,67,0.0,0.0,0,0.00,,,0.22,Rainwise IP-100,2013-07-07 10:16:00,
2013-07-07 06:21:00,66.0,-23.0,27.98,ENE,67,0.0,0.0,0,0.00,,,0.22,Rainwise IP-100,2013-07-07 10:21:00,
2013-07-07 06:26:00,66.0,-23.0,27.98,ENE,67,0.0,0.0,0,0.00,,,0.22,Rainwise IP-100,2013-07-07 10:26:00,
2013-07-07 06:31:00,66.0,-23.0,27.98,ENE,67,0.0,0.0,0,0.00,,,0.22,Rainwise IP-100,2013-07-07 10:31:00,
2013-07-07 06:36:00,66.0,-23.0,27.99,NNE,22,0.0,2.0,0,0.00,,,0.22,Rainwise IP-100,2013-07-07 10:36:00,
2013-07-07 06:41:00,66.0,-23.0,27.99,NNE,22,0.0,0.0,0,0.00,,,0.22,Rainwise IP-100,2013-07-07 10:41:00,
2013-07-07 06:46:00,66.0,-23.0,27.99,NNE,22,0.0,0.0,0,0.00,,,0.22,Rainwise IP-100,2013-07-07 10:46:00,
2013-07-07 06:51:00,66.0,-23.0,27.99,NNE,22,0.0,0.0,0,0.06,,,0.23,Rainwise IP-100,2013-07-07 10:51:00,
2013-07-07 06:56:00,66.0,-23.0,27.99,NNE,22,0.0,0.0,0,0.06,,,0.23,Rainwise IP-100,2013-07-07 10:56:00,
2013-07-07 07:01:00,66.0,-23.0,27.99,NNE,22,0.0,0.0,0,0.00,,,0.23,Rainwise IP-100,2013-07-07 11:01:00,
2013-07-07 07:06:00,66.0,-23.0,28.00,NNE,22,0.0,0.0,0,0.00,,,0.23,Rainwise IP-100,2013-07-07 11:06:00,
2013-07-07 07:11:00,66.0,-23.0,28.00,NNE,22,0.0,0.0,0,0.00,,,0.23,Rainwise IP-100,2013-07-07 11:11:00,
2013-07-07 07:16:00,67.0,-23.0,27.99,NNE,22,0.0,0.0,0,0.00,,,0.23,Rainwise IP-100,2013-07-07 11:16:00,
2013-07-07 07:21:00,67.0,-23.0,27.99,NNE,22,0.0,0.0,0,0.00,,,0.23,Rainwise IP-100,2013-07-07 11:21:00,
2013-07-07 07:26:00,67.0,-23.0,28.00,NNE,22,0.0,0.0,0,0.00,,,0.23,Rainwise IP-100,2013-07-07 11:26:00,
2013-07-07 07:31:00,68.0,-23.0,28.00,NNE,22,0.0,0.0,0,0.00,,,0.23,Rainwise IP-100,2013-07-07 11:31:00,
2013-07-07 07:36:00,68.0,-23.0,28.00,NNE,22,0.0,0.0,0,0.00,,,0.23,Rainwise IP-100,2013-07-07 11:36:00,
2013-07-07 07:41:00,68.0,-23.0,28.00,NNE,22,0.0,0.0,0,0.00,,,0.23,Rainwise IP-100,2013-07-07 11:41:00,
2013-07-07 07:46:00,69.0,-23.0,27.99,NNE,22,0.0,0.0,0,0.00,,,0.23,Rainwise IP-100,2013-07-07 11:46:00,
2013-07-07 07:51:00,69.0,-23.0,27.99,NNE,22,0.0,0.0,0,0.00,,,0.23,Rainwise IP-100,2013-07-07 11:51:00,
2013-07-07 07:56:00,69.0,-23.0,28.00,NNE,22,0.0,0.0,0,0.00,,,0.23,Rainwise IP-100,2013-07-07 11:56:00,
2013-07-07 08:01:00,69.0,-23.0,28.00,NNE,22,0.0,0.0,0,0.00,,,0.23,Rainwise IP-100,2013-07-07 12:01:00,
2013-07-07 08:06:00,69.0,-23.0,28.00,NNE,22,0.0,0.0,0,0.00,,,0.23,Rainwise IP-100,2013-07-07 12:06:00,
2013-07-07 08:11:00,69.0,-23.0,28.00,NNE,22,0.0,0.0,0,0.00,,,0.23,Rainwise IP-100,2013-07-07 12:11:00,
2013-07-07 08:16:00,69.0,-23.0,28.00,NNE,22,0.0,0.0,0,0.00,,,0.23,Rainwise IP-100,2013-07-07 12:16:00,
2013-07-07 08:21:00,69.0,-23.0,28.00,NNE,22,0.0,0.0,0,0.00,,,0.23,Rainwise IP-100,2013-07-07 12:21:00,
2013-07-07 08:26:00,69.0,-23.0,28.00,NNE,22,0.0,0.0,0,0.00,,,0.23,Rainwise IP-100,2013-07-07 12:26:00,
2013-07-07 08:31:00,69.0,-23.0,28.00,NNE,22,0.0,0.0,0,0.00,,,0.23,Rainwise IP-100,2013-07-07 12:31:00,
2013-07-07 08:36:00,69.0,-23.0,28.01,South,180,0.0,0.0,0,0.00,,,0.23,Rainwise IP-100,2013-07-07 12:36:00,
2013-07-07 08:41:00,69.0,-23.0,28.01,SSE,157,0.0,2.0,0,0.00,,,0.23,Rainwise IP-100,2013-07-07 12:41:00,
2013-07-07 08:46:00,70.0,-23.0,28.01,ESE,112,0.0,0.0,0,0.00,,,0.23,Rainwise IP-100,2013-07-07 12:46:00,
2013-07-07 08:51:00,70.0,-23.0,28.01,SSE,157,0.0,0.0,0,0.00,,,0.23,Rainwise IP-100,2013-07-07 12:51:00,
2013-07-07 08:56:00,70.0,-23.0,28.01,SSE,157,0.0,0.0,0,0.00,,,0.23,Rainwise IP-100,2013-07-07 12:56:00,
2013-07-07 09:01:00,70.0,-23.0,28.01,WSW,247,0.0,0.0,0,0.00,,,0.23,Rainwise IP-100,2013-07-07 13:01:00,
2013-07-07 09:06:00,71.0,-23.0,28.01,SW,225,0.0,1.0,0,0.00,,,0.23,Rainwise IP-100,2013-07-07 13:06:00,
2013-07-07 09:11:00,71.0,-23.0,28.01,SW,225,0.0,0.0,0,0.00,,,0.23,Rainwise IP-100,2013-07-07 13:11:00,
2013-07-07 09:16:00,71.0,-23.0,28.01,SSW,202,0.0,3.0,0,0.00,,,0.23,Rainwise IP-100,2013-07-07 13:16:00,
2013-07-07 09:21:00,71.0,-23.0,28.01,SSW,202,0.0,2.0,0,0.00,,,0.23,Rainwise IP-100,2013-07-07 13:21:00,
2013-07-07 09:26:00,71.0,-23.0,28.02,SE,135,0.0,3.0,0,0.00,,,0.23,Rainwise IP-100,2013-07-07 13:26:00,
2013-07-07 09:31:00,71.0,-23.0,28.02,NE,45,0.0,3.0,0,0.00,,,0.23,Rainwise IP-100,2013-07-07 13:31:00,
2013-07-07 09:36:00,71.0,-23.0,28.02,SSW,202,0.0,2.0,0,0.00,,,0.23,Rainwise IP-100,2013-07-07 13:36:00,
2013-07-07 09:41:00,70.0,-23.0,28.02,SW,225,0.0,2.0,0,0.00,,,0.23,Rainwise IP-100,2013-07-07 13:41:00,
2013-07-07 09:46:00,70.0,-23.0,28.02,SW,225,0.0,0.0,0,0.00,,,0.23,Rainwise IP-100,2013-07-07 13:46:00,
2013-07-07 09:51:00,70.0,-23.0,28.02,SW,225,0.0,0.0,0,0.00,,,0.23,Rainwise IP-100,2013-07-07 13:51:00,
2013-07-07 09:56:00,71.0,-23.0,28.01,SW,225,0.0,0.0,0,0.00,,,0.23,Rainwise IP-100,2013-07-07 13:56:00,
2013-07-07 10:01:00,71.0,-23.0,28.01,SW,225,0.0,0.0,0,0.00,,,0.23,Rainwise IP-100,2013-07-07 14:01:00,
2013-07-07 10:06:00,71.0,-23.0,28.01,SW,225,0.0,0.0,0,0.00,,,0.23,Rainwise IP-100,2013-07-07 14:06:00,
2013-07-07 10:11:00,72.0,-23.0,28.01,SW,225,0.0,0.0,0,0.00,,,0.23,Rainwise IP-100,2013-07-07 14:11:00,
2013-07-07 10:16:00,74.0,-23.0,28.00,SW,225,0.0,0.0,0,0.00,,,0.23,Rainwise IP-100,2013-07-07 14:16:00,
2013-07-07 10:21:00,75.0,-23.0,28.00,South,180,0.0,3.0,0,0.00,,,0.23,Rainwise IP-100,2013-07-07 14:21:00,
2013-07-07 10:26:00,75.0,-23.0,28.00,South,180,0.0,2.0,0,0.00,,,0.23,Rainwise IP-100,2013-07-07 14:26:00,
2013-07-07 10:31:00,74.0,-23.0,28.00,SE,135,0.0,3.0,0,0.00,,,0.23,Rainwise IP-100,2013-07-07 14:31:00,
2013-07-07 10:36:00,74.0,-23.0,28.00,WSW,247,1.0,5.0,0,0.00,,,0.23,Rainwise IP-100,2013-07-07 14:36:00,
2013-07-07 10:41:00,73.0,-23.0,28.00,SSE,157,0.0,4.0,0,0.00,,,0.23,Rainwise IP-100,2013-07-07 14:41:00,
2013-07-07 10:46:00,73.0,-23.0,28.01,SSE,157,0.0,3.0,0,0.00,,,0.23,Rainwise IP-100,2013-07-07 14:46:00,
2013-07-07 10:51:00,73.0,-23.0,28.01,WSW,247,0.0,1.0,0,0.00,,,0.23,Rainwise IP-100,2013-07-07 14:51:00,
2013-07-07 10:56:00,73.0,-23.0,28.00,SW,225,0.0,5.0,0,0.00,,,0.23,Rainwise IP-100,2013-07-07 14:56:00,
2013-07-07 11:01:00,74.0,-23.0,28.00,SSE,157,2.0,2.0,0,0.00,,,0.23,Rainwise IP-100,2013-07-07 15:01:00,
2013-07-07 11:06:00,74.0,-23.0,28.00,WSW,247,0.0,4.0,0,0.00,,,0.23,Rainwise IP-100,2013-07-07 15:06:00,
2013-07-07 11:11:00,75.0,-23.0,28.00,SE,135,0.0,3.0,0,0.00,,,0.23,Rainwise IP-100,2013-07-07 15:11:00,
2013-07-07 11:16:00,75.0,-23.0,28.00,SSW,202,0.0,2.0,0,0.00,,,0.23,Rainwise IP-100,2013-07-07 15:16:00,
2013-07-07 11:21:00,75.0,-23.0,28.00,West,270,0.0,0.0,0,0.00,,,0.23,Rainwise IP-100,2013-07-07 15:21:00,
2013-07-07 11:26:00,75.0,-23.0,28.00,East,90,0.0,0.0,0,0.00,,,0.23,Rainwise IP-100,2013-07-07 15:26:00,
2013-07-07 11:31:00,76.0,-23.0,28.00,South,180,0.0,0.0,0,0.00,,,0.23,Rainwise IP-100,2013-07-07 15:31:00,
2013-07-07 11:36:00,76.0,-23.0,28.00,SSW,202,0.0,3.0,0,0.00,,,0.23,Rainwise IP-100,2013-07-07 15:36:00,
2013-07-07 11:41:00,76.0,-23.0,28.00,SSW,202,0.0,3.0,0,0.00,,,0.23,Rainwise IP-100,2013-07-07 15:41:00,
2013-07-07 11:46:00,76.0,-23.0,28.00,SSW,202,2.0,2.0,0,0.00,,,0.23,Rainwise IP-100,2013-07-07 15:46:00,
2013-07-07 11:51:00,76.0,-23.0,28.00,SSE,157,0.0,3.0,0,0.00,,,0.23,Rainwise IP-100,2013-07-07 15:51:00,
2013-07-07 11:56:00,76.0,-23.0,28.00,SSW,202,0.0,3.0,0,0.00,,,0.23,Rainwise IP-100,2013-07-07 15:56:00,
2013-07-07 12:01:00,76.0,-23.0,28.00,SW,225,3.0,5.0,0,0.00,,,0.23,Rainwise IP-100,2013-07-07 16:01:00,
2013-07-07 12:06:00,76.0,-23.0,28.00,SW,225,0.0,4.0,0,0.00,,,0.23,Rainwise IP-100,2013-07-07 16:06:00,
2013-07-07 12:11:00,76.0,-23.0,28.00,SW,225,0.0,3.0,0,0.00,,,0.23,Rainwise IP-100,2013-07-07 16:11:00,
2013-07-07 12:16:00,76.0,-23.0,28.00,NW,315,0.0,0.0,0,0.00,,,0.23,Rainwise IP-100,2013-07-07 16:16:00,
2013-07-07 12:21:00,77.0,-23.0,28.00,WSW,247,0.0,0.0,0,0.00,,,0.23,Rainwise IP-100,2013-07-07 16:21:00,
2013-07-07 12:26:00,77.0,-23.0,28.00,West,270,0.0,0.0,0,0.00,,,0.23,Rainwise IP-100,2013-07-07 16:26:00,
2013-07-07 12:31:00,77.0,-23.0,28.00,West,270,0.0,0.0,0,0.00,,,0.23,Rainwise IP-100,2013-07-07 16:31:00,
2013-07-07 12:36:00,77.0,-23.0,27.99,WNW,292,0.0,0.0,0,0.00,,,0.23,Rainwise IP-100,2013-07-07 16:36:00,
2013-07-07 12:41:00,77.0,-23.0,27.99,SW,225,0.0,0.0,0,0.00,,,0.23,Rainwise IP-100,2013-07-07 16:41:00,
2013-07-07 12:46:00,78.0,-23.0,27.99,SW,225,0.0,0.0,0,0.00,,,0.23,Rainwise IP-100,2013-07-07 16:46:00,
2013-07-07 12:51:00,78.0,-23.0,27.99,SSE,157,0.0,0.0,0,0.00,,,0.23,Rainwise IP-100,2013-07-07 16:51:00,
2013-07-07 12:56:00,78.0,-23.0,27.99,WNW,292,0.0,0.0,0,0.00,,,0.23,Rainwise IP-100,2013-07-07 16:56:00,
2013-07-07 13:01:00,78.0,-23.0,27.99,South,180,0.0,0.0,0,0.00,,,0.23,Rainwise IP-100,2013-07-07 17:01:00,
2013-07-07 13:06:00,78.0,-23.0,28.00,SW,225,0.0,0.0,0,0.00,,,0.23,Rainwise IP-100,2013-07-07 17:06:00,
2013-07-07 13:11:00,78.0,-23.0,28.00,South,180,0.0,0.0,0,0.00,,,0.23,Rainwise IP-100,2013-07-07 17:11:00,
2013-07-07 13:16:00,78.0,-23.0,27.99,SSW,202,0.0,0.0,0,0.00,,,0.23,Rainwise IP-100,2013-07-07 17:16:00,
2013-07-07 13:21:00,78.0,-23.0,27.99,SSW,202,0.0,0.0,0,0.00,,,0.23,Rainwise IP-100,2013-07-07 17:21:00,
2013-07-07 13:26:00,78.0,-23.0,27.99,WSW,247,0.0,4.0,0,0.00,,,0.23,Rainwise IP-100,2013-07-07 17:26:00,
2013-07-07 13:31:00,79.0,-23.0,27.99,South,180,0.0,0.0,0,0.00,,,0.23,Rainwise IP-100,2013-07-07 17:31:00,
2013-07-07 13:36:00,79.0,-23.0,27.98,South,180,0.0,0.0,0,0.00,,,0.23,Rainwise IP-100,2013-07-07 17:36:00,
2013-07-07 13:41:00,79.0,-23.0,27.98,SW,225,0.0,0.0,0,0.00,,,0.23,Rainwise IP-100,2013-07-07 17:41:00,
2013-07-07 13:46:00,79.0,-23.0,27.97,East,90,0.0,0.0,0,0.00,,,0.23,Rainwise IP-100,2013-07-07 17:46:00,
2013-07-07 13:51:00,79.0,-23.0,27.97,SSW,202,0.0,0.0,0,0.00,,,0.23,Rainwise IP-100,2013-07-07 17:51:00,
2013-07-07 13:56:00,79.0,-23.0,27.97,ESE,112,0.0,0.0,0,0.00,,,0.23,Rainwise IP-100,2013-07-07 17:56:00,
2013-07-07 14:01:00,78.0,-23.0,27.97,SSE,157,0.0,2.0,0,0.00,,,0.23,Rainwise IP-100,2013-07-07 18:01:00,
2013-07-07 14:06:00,78.0,-23.0,27.98,East,90,0.0,4.0,0,0.00,,,0.23,Rainwise IP-100,2013-07-07 18:06:00,
2013-07-07 14:11:00,78.0,-23.0,27.98,ESE,112,0.0,3.0,0,0.00,,,0.23,Rainwise IP-100,2013-07-07 18:11:00,
2013-07-07 14:16:00,78.0,-23.0,27.97,NW,315,0.0,3.0,0,0.00,,,0.23,Rainwise IP-100,2013-07-07 18:16:00,
2013-07-07 14:21:00,79.0,-23.0,27.97,SW,225,0.0,3.0,0,0.00,,,0.23,Rainwise IP-100,2013-07-07 18:21:00,
2013-07-07 14:26:00,78.0,-23.0,27.97,WSW,247,0.0,4.0,0,0.00,,,0.23,Rainwise IP-100,2013-07-07 18:26:00,
2013-07-07 14:31:00,79.0,-23.0,27.97,WNW,292,0.0,0.0,0,0.00,,,0.23,Rainwise IP-100,2013-07-07 18:31:00,
2013-07-07 14:36:00,79.0,-23.0,27.96,East,90,0.0,0.0,0,0.00,,,0.23,Rainwise IP-100,2013-07-07 18:36:00,
2013-07-07 14:41:00,79.0,-23.0,27.96,SE,135,0.0,3.0,0,0.00,,,0.23,Rainwise IP-100,2013-07-07 18:41:00,
2013-07-07 14:46:00,78.0,-23.0,27.96,SE,135,0.0,3.0,0,0.00,,,0.23,Rainwise IP-100,2013-07-07 18:46:00,
2013-07-07 14:51:00,78.0,-23.0,27.96,SE,135,0.0,3.0,0,0.00,,,0.23,Rainwise IP-100,2013-07-07 18:51:00,
2013-07-07 14:56:00,78.0,-23.0,27.96,WSW,247,0.0,0.0,0,0.00,,,0.23,Rainwise IP-100,2013-07-07 18:56:00,
2013-07-07 15:01:00,79.0,-23.0,27.96,SSE,157,0.0,3.0,0,0.00,,,0.23,Rainwise IP-100,2013-07-07 19:01:00,
2013-07-07 15:06:00,79.0,-23.0,27.96,SSE,157,2.0,3.0,0,0.00,,,0.23,Rainwise IP-100,2013-07-07 19:06:00,
2013-07-07 15:11:00,78.0,-23.0,27.96,West,270,0.0,4.0,0,0.00,,,0.23,Rainwise IP-100,2013-07-07 19:11:00,
2013-07-07 15:16:00,79.0,-23.0,27.96,WSW,247,0.0,3.0,0,0.00,,,0.23,Rainwise IP-100,2013-07-07 19:16:00,
2013-07-07 15:21:00,78.0,-23.0,27.96,South,180,0.0,4.0,0,0.00,,,0.23,Rainwise IP-100,2013-07-07 19:21:00,
2013-07-07 15:26:00,79.0,-23.0,27.95,WNW,292,0.0,3.0,0,0.00,,,0.23,Rainwise IP-100,2013-07-07 19:26:00,
2013-07-07 15:31:00,79.0,-23.0,27.95,SW,225,0.0,0.0,0,0.00,,,0.23,Rainwise IP-100,2013-07-07 19:31:00,
2013-07-07 15:36:00,79.0,-23.0,27.95,SW,225,0.0,0.0,0,0.00,,,0.23,Rainwise IP-100,2013-07-07 19:36:00,
2013-07-07 15:41:00,80.0,-23.0,27.95,SSW,202,0.0,0.0,0,0.00,,,0.23,Rainwise IP-100,2013-07-07 19:41:00,
2013-07-07 15:46:00,80.0,-23.0,27.95,WSW,247,0.0,0.0,0,0.00,,,0.23,Rainwise IP-100,2013-07-07 19:46:00,
2013-07-07 15:51:00,80.0,-23.0,27.95,WSW,247,0.0,0.0,0,0.00,,,0.23,Rainwise IP-100,2013-07-07 19:51:00,
2013-07-07 15:56:00,80.0,-23.0,27.94,SSE,157,0.0,0.0,0,0.00,,,0.23,Rainwise IP-100,2013-07-07 19:56:00,
2013-07-07 16:01:00,80.0,16.0,27.94,SSE,157,0.0,0.0,9,0.00,,,0.23,Rainwise IP-100,2013-07-07 20:01:00,
2013-07-07 16:06:00,80.0,-23.0,27.94,South,180,0.0,0.0,0,0.00,,,0.23,Rainwise IP-100,2013-07-07 20:06:00,
2013-07-07 16:11:00,79.0,39.0,27.94,SSW,202,0.0,4.0,24,0.00,,,0.23,Rainwise IP-100,2013-07-07 20:11:00,
2013-07-07 16:16:00,79.0,-23.0,27.94,SW,225,3.0,4.0,0,0.00,,,0.23,Rainwise IP-100,2013-07-07 20:16:00,
2013-07-07 16:21:00,79.0,-23.0,27.94,East,90,0.0,4.0,0,0.00,,,0.23,Rainwise IP-100,2013-07-07 20:21:00,
2013-07-07 16:26:00,79.0,16.0,27.94,SE,135,0.0,4.0,9,0.00,,,0.23,Rainwise IP-100,2013-07-07 20:26:00,
2013-07-07 16:31:00,79.0,-23.0,27.94,SE,135,0.0,6.0,0,0.00,,,0.23,Rainwise IP-100,2013-07-07 20:31:00,
2013-07-07 16:36:00,79.0,-23.0,27.94,ESE,112,0.0,4.0,0,0.00,,,0.23,Rainwise IP-100,2013-07-07 20:36:00,
2013-07-07 16:41:00,79.0,-23.0,27.94,East,90,0.0,4.0,0,0.00,,,0.23,Rainwise IP-100,2013-07-07 20:41:00,
2013-07-07 16:46:00,79.0,0.0,27.94,SW,225,0.0,3.0,4,0.00,,,0.23,Rainwise IP-100,2013-07-07 20:46:00,
2013-07-07 16:51:00,78.0,21.0,27.94,SSE,157,0.0,7.0,11,0.00,,,0.23,Rainwise IP-100,2013-07-07 20:51:00,
2013-07-07 16:56:00,77.0,-23.0,27.95,SSW,202,0.0,5.0,0,0.00,,,0.23,Rainwise IP-100,2013-07-07 20:56:00,
2013-07-07 17:01:00,77.0,-23.0,27.95,SW,225,0.0,6.0,0,0.00,,,0.23,Rainwise IP-100,2013-07-07 21:01:00,
2013-07-07 17:06:00,77.0,-23.0,27.95,ESE,112,3.0,4.0,0,0.00,,,0.23,Rainwise IP-100,2013-07-07 21:06:00,
2013-07-07 17:11:00,77.0,-23.0,27.95,SSE,157,0.0,3.0,0,0.00,,,0.23,Rainwise IP-100,2013-07-07 21:11:00,
2013-07-07 17:16:00,77.0,-23.0,27.94,SSE,157,0.0,4.0,0,0.00,,,0.23,Rainwise IP-100,2013-07-07 21:16:00,
2013-07-07 17:21:00,77.0,-23.0,27.94,SE,135,2.0,4.0,0,0.00,,,0.23,Rainwise IP-100,2013-07-07 21:21:00,
2013-07-07 17:26:00,77.0,-23.0,27.94,ESE,112,5.0,5.0,0,0.00,,,0.23,Rainwise IP-100,2013-07-07 21:26:00,
2013-07-07 17:31:00,77.0,-23.0,27.94,SSW,202,0.0,5.0,0,0.00,,,0.23,Rainwise IP-100,2013-07-07 21:31:00,
2013-07-07 17:36:00,77.0,-23.0,27.94,SSE,157,0.0,2.0,0,0.00,,,0.23,Rainwise IP-100,2013-07-07 21:36:00,
2013-07-07 17:41:00,77.0,-23.0,27.94,NW,315,0.0,4.0,0,0.00,,,0.23,Rainwise IP-100,2013-07-07 21:41:00,
2013-07-07 17:46:00,77.0,-23.0,27.93,WSW,247,0.0,4.0,0,0.00,,,0.23,Rainwise IP-100,2013-07-07 21:46:00,
2013-07-07 17:51:00,77.0,-23.0,27.93,SE,135,0.0,5.0,0,0.00,,,0.23,Rainwise IP-100,2013-07-07 21:51:00,
2013-07-07 17:56:00,76.0,-23.0,27.93,South,180,0.0,4.0,0,0.00,,,0.23,Rainwise IP-100,2013-07-07 21:56:00,
2013-07-07 18:01:00,76.0,-23.0,27.93,South,180,0.0,5.0,0,0.00,,,0.23,Rainwise IP-100,2013-07-07 22:01:00,
2013-07-07 18:06:00,76.0,-23.0,27.94,SSW,202,2.0,5.0,0,0.00,,,0.23,Rainwise IP-100,2013-07-07 22:06:00,
2013-07-07 18:11:00,76.0,-23.0,27.94,SW,225,0.0,3.0,0,0.00,,,0.23,Rainwise IP-100,2013-07-07 22:11:00,
2013-07-07 18:16:00,76.0,-23.0,27.94,South,180,0.0,3.0,0,0.00,,,0.23,Rainwise IP-100,2013-07-07 22:16:00,
2013-07-07 18:21:00,76.0,-23.0,27.94,South,180,0.0,0.0,0,0.00,,,0.23,Rainwise IP-100,2013-07-07 22:21:00,
2013-07-07 18:26:00,76.0,-23.0,27.94,SW,225,0.0,3.0,0,0.00,,,0.23,Rainwise IP-100,2013-07-07 22:26:00,
2013-07-07 18:31:00,76.0,-23.0,27.94,SSW,202,0.0,3.0,0,0.00,,,0.23,Rainwise IP-100,2013-07-07 22:31:00,
2013-07-07 18:36:00,76.0,-23.0,27.94,SSW,202,0.0,0.0,0,0.00,,,0.23,Rainwise IP-100,2013-07-07 22:36:00,
2013-07-07 18:41:00,76.0,-23.0,27.94,SW,225,1.0,2.0,0,0.00,,,0.23,Rainwise IP-100,2013-07-07 22:41:00,
2013-07-07 18:46:00,76.0,-23.0,27.94,SSW,202,0.0,4.0,0,0.00,,,0.23,Rainwise IP-100,2013-07-07 22:46:00,
2013-07-07 18:51:00,75.0,-23.0,27.94,SSE,157,0.0,4.0,0,0.00,,,0.23,Rainwise IP-100,2013-07-07 22:51:00,
2013-07-07 18:56:00,75.0,-23.0,27.94,SW,225,0.0,1.0,0,0.00,,,0.23,Rainwise IP-100,2013-07-07 22:56:00,
2013-07-07 19:01:00,75.0,-23.0,27.94,WSW,247,0.0,0.0,0,0.00,,,0.23,Rainwise IP-100,2013-07-07 23:01:00,
2013-07-07 19:06:00,75.0,-23.0,27.94,NW,315,0.0,2.0,0,0.00,,,0.23,Rainwise IP-100,2013-07-07 23:06:00,
2013-07-07 19:11:00,75.0,-23.0,27.94,SW,225,0.0,1.0,0,0.00,,,0.23,Rainwise IP-100,2013-07-07 23:11:00,
2013-07-07 19:16:00,75.0,-23.0,27.94,NNW,337,0.0,0.0,0,0.00,,,0.23,Rainwise IP-100,2013-07-07 23:16:00,
2013-07-07 19:21:00,75.0,-23.0,27.94,NNW,337,0.0,0.0,0,0.00,,,0.23,Rainwise IP-100,2013-07-07 23:21:00,
2013-07-07 19:26:00,74.0,-23.0,27.94,NNW,337,0.0,0.0,0,0.00,,,0.23,Rainwise IP-100,2013-07-07 23:26:00,
2013-07-07 19:31:00,74.0,-23.0,27.94,NNW,337,0.0,0.0,0,0.00,,,0.23,Rainwise IP-100,2013-07-07 23:31:00,
2013-07-07 19:36:00,74.0,-23.0,27.95,NNW,337,0.0,0.0,0,0.00,,,0.23,Rainwise IP-100,2013-07-07 23:36:00,
2013-07-07 19:41:00,73.0,-23.0,27.95,NNW,337,0.0,0.0,0,0.00,,,0.23,Rainwise IP-100,2013-07-07 23:41:00,
2013-07-07 19:46:00,73.0,-23.0,27.95,NNW,337,0.0,0.0,0,0.00,,,0.23,Rainwise IP-100,2013-07-07 23:46:00,
2013-07-07 19:51:00,73.0,-23.0,27.95,NNW,337,0.0,0.0,0,0.00,,,0.23,Rainwise IP-100,2013-07-07 23:51:00,
2013-07-07 19:56:00,73.0,-23.0,27.96,NNW,337,0.0,0.0,0,0.00,,,0.23,Rainwise IP-100,2013-07-07 23:56:00,
2013-07-07 20:01:00,73.0,-23.0,27.96,NNW,337,0.0,0.0,0,0.00,,,0.23,Rainwise IP-100,2013-07-08 00:01:00,
2013-07-07 20:06:00,72.0,-23.0,27.96,WNW,292,0.0,0.0,0,0.00,,,0.23,Rainwise IP-100,2013-07-08 00:06:00,
2013-07-07 20:11:00,72.0,-23.0,27.96,WNW,292,0.0,0.0,0,0.00,,,0.23,Rainwise IP-100,2013-07-08 00:11:00,
2013-07-07 20:16:00,72.0,-23.0,27.96,WNW,292,0.0,0.0,0,0.00,,,0.23,Rainwise IP-100,2013-07-08 00:16:00,
2013-07-07 20:21:00,72.0,-23.0,27.96,WNW,292,0.0,0.0,0,0.00,,,0.23,Rainwise IP-100,2013-07-08 00:21:00,
2013-07-07 20:26:00,71.0,-23.0,27.96,WNW,292,0.0,0.0,0,0.00,,,0.23,Rainwise IP-100,2013-07-08 00:26:00,
2013-07-07 20:31:00,71.0,-23.0,27.96,WNW,292,0.0,0.0,0,0.00,,,0.23,Rainwise IP-100,2013-07-08 00:31:00,
2013-07-07 20:36:00,71.0,-23.0,27.98,WNW,292,0.0,0.0,0,0.00,,,0.23,Rainwise IP-100,2013-07-08 00:36:00,
2013-07-07 20:41:00,71.0,-23.0,27.98,WNW,292,0.0,0.0,0,0.00,,,0.23,Rainwise IP-100,2013-07-08 00:41:00,
2013-07-07 20:46:00,70.0,-23.0,27.97,WNW,292,0.0,0.0,0,0.00,,,0.23,Rainwise IP-100,2013-07-08 00:46:00,
2013-07-07 20:51:00,70.0,-23.0,27.97,WNW,292,0.0,0.0,0,0.00,,,0.23,Rainwise IP-100,2013-07-08 00:51:00,
2013-07-07 20:56:00,70.0,-23.0,27.98,WNW,292,0.0,0.0,0,0.00,,,0.23,Rainwise IP-100,2013-07-08 00:56:00,
2013-07-07 21:01:00,70.0,-23.0,27.98,WNW,292,0.0,0.0,0,0.00,,,0.23,Rainwise IP-100,2013-07-08 01:01:00,
2013-07-07 21:06:00,70.0,-23.0,27.98,WNW,292,0.0,0.0,0,0.00,,,0.23,Rainwise IP-100,2013-07-08 01:06:00,
2013-07-07 21:11:00,69.0,-23.0,27.98,WNW,292,0.0,0.0,0,0.00,,,0.23,Rainwise IP-100,2013-07-08 01:11:00,
2013-07-07 21:16:00,69.0,-23.0,27.99,WNW,292,0.0,0.0,0,0.00,,,0.23,Rainwise IP-100,2013-07-08 01:16:00,
2013-07-07 21:21:00,69.0,-23.0,27.99,WNW,292,0.0,0.0,0,0.00,,,0.23,Rainwise IP-100,2013-07-08 01:21:00,
2013-07-07 21:26:00,69.0,-23.0,27.99,WNW,292,0.0,0.0,0,0.00,,,0.23,Rainwise IP-100,2013-07-08 01:26:00,
2013-07-07 21:31:00,69.0,-23.0,27.99,WNW,292,0.0,0.0,0,0.00,,,0.23,Rainwise IP-100,2013-07-08 01:31:00,
2013-07-07 21:36:00,69.0,-23.0,27.99,WNW,292,0.0,0.0,0,0.00,,,0.23,Rainwise IP-100,2013-07-08 01:36:00,
2013-07-07 21:41:00,69.0,-23.0,27.99,WNW,292,0.0,0.0,0,0.00,,,0.23,Rainwise IP-100,2013-07-08 01:41:00,
2013-07-07 21:46:00,68.0,-23.0,27.99,WNW,292,0.0,0.0,0,0.00,,,0.23,Rainwise IP-100,2013-07-08 01:46:00,
2013-07-07 21:51:00,68.0,-23.0,27.99,WNW,292,0.0,0.0,0,0.00,,,0.23,Rainwise IP-100,2013-07-08 01:51:00,
2013-07-07 21:56:00,68.0,-23.0,28.00,WNW,292,0.0,0.0,0,0.00,,,0.23,Rainwise IP-100,2013-07-08 01:56:00,
2013-07-07 22:01:00,68.0,-23.0,28.00,WNW,292,0.0,0.0,0,0.00,,,0.23,Rainwise IP-100,2013-07-08 02:01:00,
2013-07-07 22:06:00,68.0,-23.0,28.01,WNW,292,0.0,0.0,0,0.00,,,0.23,Rainwise IP-100,2013-07-08 02:06:00,
2013-07-07 22:11:00,68.0,-23.0,28.01,WNW,292,0.0,0.0,0,0.00,,,0.23,Rainwise IP-100,2013-07-08 02:11:00,
2013-07-07 22:16:00,68.0,-23.0,28.00,WNW,292,0.0,0.0,0,0.00,,,0.23,Rainwise IP-100,2013-07-08 02:16:00,
2013-07-07 22:21:00,68.0,-23.0,28.00,WNW,292,0.0,0.0,0,0.00,,,0.23,Rainwise IP-100,2013-07-08 02:21:00,
2013-07-07 22:26:00,68.0,-23.0,28.00,WNW,292,0.0,0.0,0,0.00,,,0.23,Rainwise IP-100,2013-07-08 02:26:00,
2013-07-07 22:31:00,68.0,-23.0,28.00,SW,225,0.0,2.0,0,0.00,,,0.23,Rainwise IP-100,2013-07-08 02:31:00,
2013-07-07 22:36:00,68.0,-23.0,28.00,SW,225,0.0,0.0,0,0.00,,,0.23,Rainwise IP-100,2013-07-08 02:36:00,
2013-07-07 22:41:00,68.0,-23.0,28.00,SW,225,0.0,0.0,0,0.00,,,0.23,Rainwise IP-100,2013-07-08 02:41:00,
2013-07-07 22:46:00,68.0,-23.0,28.01,SW,225,0.0,0.0,0,0.00,,,0.23,Rainwise IP-100,2013-07-08 02:46:00,
2013-07-07 22:51:00,68.0,-23.0,28.01,SW,225,0.0,0.0,0,0.00,,,0.23,Rainwise IP-100,2013-07-08 02:51:00,
2013-07-07 22:56:00,68.0,-23.0,28.02,SW,225,0.0,0.0,0,0.00,,,0.23,Rainwise IP-100,2013-07-08 02:56:00,
2013-07-07 23:01:00,68.0,-23.0,28.02,SW,225,0.0,0.0,0,0.00,,,0.23,Rainwise IP-100,2013-07-08 03:01:00,
2013-07-07 23:06:00,68.0,-23.0,28.02,SW,225,0.0,0.0,0,0.00,,,0.23,Rainwise IP-100,2013-07-08 03:06:00,
2013-07-07 23:11:00,68.0,-23.0,28.02,SW,225,0.0,0.0,0,0.00,,,0.23,Rainwise IP-100,2013-07-08 03:11:00,
2013-07-07 23:16:00,68.0,-23.0,28.01,SW,225,0.0,0.0,0,0.00,,,0.23,Rainwise IP-100,2013-07-08 03:16:00,
2013-07-07 23:21:00,68.0,-23.0,28.01,SW,225,0.0,0.0,0,0.00,,,0.23,Rainwise IP-100,2013-07-08 03:21:00,
2013-07-07 23:26:00,68.0,-23.0,28.02,SW,225,0.0,0.0,0,0.00,,,0.23,Rainwise IP-100,2013-07-08 03:26:00,
2013-07-07 23:31:00,68.0,-23.0,28.02,SW,225,0.0,0.0,0,0.00,,,0.23,Rainwise IP-100,2013-07-08 03:31:00,
2013-07-07 23:36:00,68.0,-23.0,28.02,SW,225,0.0,0.0,0,0.00,,,0.23,Rainwise IP-100,2013-07-08 03:36:00,
2013-07-07 23:41:00,68.0,-23.0,28.02,SW,225,0.0,0.0,0,0.00,,,0.23,Rainwise IP-100,2013-07-08 03:41:00,
2013-07-07 23:46:00,68.0,-23.0,28.02,SW,225,0.0,0.0,0,0.00,,,0.23,Rainwise IP-100,2013-07-08 03:46:00,
2013-07-07 23:51:00,68.0,-23.0,28.02,SW,225,0.0,0.0,0,0.00,,,0.23,Rainwise IP-100,2013-07-08 03:51:00,
2013-07-07 23:56:00,68.0,-23.0,28.02,SW,225,0.0,0.0,0,0.00,,,0.23,Rainwise IP-100,2013-07-08 03:56:00,